Location: Forst
(46.9333°N, 15.4333°E)
Time: 12:09:30
(UTC+00:00)

X-37B - Pass Details

Date: 30 September 2021
Orbit: 385 x 389 km, 45.0° (Epoch: 17 October)

Event Time Altitude Azimuth Distance (km) Brightness Sun altitude
Exits shadow 03:39:22 29° 251° (WSW) 745 1.4 -13.8°
Maximum altitude 03:40:38 49° 192° (SSW) 509 1.0 -13.6°
Drops below altitude 10° 03:43:44 10° 116° (ESE) 1,412 4.3 -13.1°
Sets 03:45:50 0° 111° (ESE) 2,266 5.6 -12.7°
